Regional Weather Roundup
Issued by NWS

Home | Current Version | Previous Version | Graphics & Text | Print | Product List | Glossary Off
Versions: 1 2 3 4 5 6 7 8 9 10 11 12 13 14 15 16 17 18 19 20 21 22 23 24 25 26 27 28 29 30 31 32 33 34 35 36 37 38 39 40 41 42 43 44 45 46 47 48 49 50

000
ASUS43 KTOP 231859
RWRKS

WEATHER ROUNDUP FOR KANSAS
NATIONAL WEATHER SERVICE GOODLAND KS
200 PM CDT FRI JUN 23 2017

NOTE:  "FAIR" INDICATES FEW OR NO CLOUDS BELOW 12,000 FEET WITH NO
SIGNIFICANT WEATHER AND/OR OBSTRUCTIONS TO VISIBILITY.

KSZ001>006-013>018-027>032-041>047-232000-
NORTHWEST KANSAS

CITY           SKY/WX    TMP DP  RH WIND       PRES   REMARKS
GOODLAND       CLOUDY    65  47  52 N7        30.21F
HAYS           CLOUDY    71  52  50 N14       30.13R
HILL CITY      CLOUDY    75  46  35 N12G21    30.15S
RUSSELL        CLOUDY    72  54  53 N10       30.10R
$$

KSZ061>065-074>080-084>089-232000-
SOUTHWEST KANSAS

CITY           SKY/WX    TMP DP  RH WIND       PRES   REMARKS
DODGE CITY     MOSUNNY   72  49  44 NE17G28   30.14R
ELKHART          N/A    N/A N/A N/A MISG        N/A
GARDEN CITY    CLOUDY    69  45  41 N20       30.17S
GREAT BEND     CLOUDY    72  49  44 N17G24    30.10F
LIBERAL        SUNNY     73  52  47 N22G30    30.15R
$$

KSZ066>073-081>083-090>101-232000-
SOUTHEAST KANSAS

CITY           SKY/WX    TMP DP  RH WIND       PRES   REMARKS
CHANUTE        SUNNY     87  53  31 N15G23    29.90S
COFFEYVILLE    SUNNY     87  61  41 N15G28    29.88S
HUTCHINSON     CLOUDY    78  54  43 N16G26    30.04R
MEDICINE LODGE   N/A     73  56  54 N16G30    30.02R
NEWTON         CLOUDY    77  52  41 N18G25    30.01R
PARSONS        SUNNY     87  55  33 N16G23    29.91R
WICHITA INTL   LGT RAIN  80  52  37 N15G21    29.99R
WICHITA JABRA  CLOUDY    78  53  41 NE14G21   29.96R
WICHITA MCCONL PTSUNNY   79  48  34 NE13G21   29.98R
WINFIELD       SUNNY     86  51  29 NE14G25   29.96R
$$

KSZ007>012-019>026-033>040-048>060-102>105-232000-
NORTHEAST KANSAS

CITY           SKY/WX    TMP DP  RH WIND       PRES   REMARKS
CONCORDIA      SUNNY     76  46  34 N15       30.04F
EMPORIA        SUNNY     81  53  37 N15G24    29.96S
LAWRENCE       SUNNY     81  59  47 NW21G29   29.95R
MANHATTAN      PTSUNNY   78  48  34 N16G26    30.00F
OLATHE IND     SUNNY     81  57  43 N21G29    29.95R
OLATHE EXE     SUNNY     81  56  42 N16G24    29.94R
SALINA         MOSUNNY   81  45  28 N24       30.05R
TOPEKA BILLARD SUNNY     78  52  40 N16G26    29.96R
TOPEKA FORBES  CLOUDY    81  55  40 N20G28    29.96S
$$




USA.gov is the U.S. government's official web portal to all federal, state and local government web resources and services.